Location: Pian di Sc�
(43.6333°N, 11.5500°E)
Time: 17:30:27
(UTC+00:00)

NOSS 2-3 (C) - Pass Details

Date: 07 August 2020
Orbit: 572 x 1639 km, 63.4° (Epoch: 17 September)

Event Time Altitude Azimuth Distance (km) Brightness Sun altitude
Exits shadow 03:01:12 17° 226° (SW) 1,536 4.9 -11.6°
Maximum altitude 03:04:26 70° 309° (NW) 677 3.7 -11.1°
Drops below altitude 10° 03:09:22 10° 34° (NNE) 2,241 7.7 -10.4°
Sets 03:12:02 0° 36° (NE) 3,314 8.8 -10.0°
